This demonstration page uses our WeatherBlox Daily Observations layout. Learn more.

Left ArrowRight Arrow

39.51506, -84.39828

Hourly Observations for June 21, 2020

Temp ( °F °C ) Dew Point ( °F °C ) Humidity (%) Winds ( mph kmh ) Pressure ( in mb ) Visibility ( mi km ) Precip ( " mm )
12:15 am 00:15 Clear 68 20.1 66 18.9 93 93 Calm 29.95 1014 10 16.0934 0 0
12:35 am 00:35 Clear 69 20.3 67 19.2 93 93 Calm 29.94 1014 10 16.0934 0 0
12:55 am 00:55 Clear 67 19.4 65 18.5 95 95 Calm 29.95 1014 10 16.0934 0 0
1:15 am 01:15 Clear 67 19.3 65 18.5 95 95 Calm 29.94 1014 10 16.0934 0 0
1:35 am 01:35 Clear 67 19.4 65 18.4 94 94 Calm 29.94 1014 10 16.0934 0 0
1:55 am 01:55 Clear 67 19.3 66 18.7 96 96 Calm 29.94 1014 10 16.0934 0 0
2:15 am 02:15 Clear 65 18.5 65 18.1 98 98 Calm 29.94 1014 10 16.0934 0 0
2:35 am 02:35 Clear 66 18.9 65 18.6 98 98 Calm 29.94 1014 10 16.0934 0 0
2:55 am 02:55 Clear 64 18 64 17.8 99 99 Calm 29.93 1014 7 11.26538 0 0
3:15 am 03:15 Clear 65 18.2 64 18 99 99 Calm 29.93 1014 7 11.26538 0 0
3:35 am 03:35 Clear with Mist and Fog 65 18.4 65 18.3 99 99 Calm 29.93 1013 7 11.26538 0 0
3:55 am 03:55 Clear with Mist and Fog 65 18.3 65 18.3 100 100 Calm 29.93 1013 4 6.43736 0 0
4:15 am 04:15 Clear with Mist and Fog 65 18.2 65 18.1 99 99 Calm 29.93 1014 7 11.26538 0 0
4:35 am 04:35 Clear with Mist and Fog 64 17.7 64 17.7 100 100 Calm 29.93 1014 5 8.0467 0 0
4:55 am 04:55 Hazy 63 17 N/A N/A Calm 29.93 1014 5 8.0467 0 0
5:15 am 05:15 Clear with Mist and Fog 64 17.5 63 17.4 99 99 Calm 29.93 1014 7 11.26538 0 0
5:35 am 05:35 Clear with Mist and Fog 64 17.7 64 17.5 99 99 Calm 29.93 1014 5 8.0467 0 0
5:55 am 05:55 Clear with Mist and Fog 63 17.2 63 17.1 99 99 Calm 29.94 1014 2.5 4.02335 0 0
6:15 am 06:15 Mostly Cloudy with Mist and Fog 61 16.2 61 16 99 99 Calm 29.94 1014 1.5 2.41401 0 0
6:35 am 06:35 Sunny with Mist and Fog 63 17 N/A N/A Calm 29.94 1014 2.5 4.02335 0 0
6:55 am 06:55 Sunny with Mist and Fog 64 17.6 64 17.5 99 99 Calm 29.94 1014 2.5 4.02335 0 0
7:15 am 07:15 Sunny with Mist and Fog 65 18.2 64 18 99 99 Calm 29.95 1014 3.5 5.63269 0 0
7:35 am 07:35 Sunny with Mist and Fog 67 19.3 66 18.9 98 98 Calm 29.95 1014 4 6.43736 0 0
7:55 am 07:55 Sunny with Mist and Fog 69 20.5 67 19.4 93 93 Calm 29.95 1014 7 11.26538 0 0
8:15 am 08:15 Sunny 71 21.9 68 20.1 90 90 Calm 29.95 1014 7 11.26538 0 0
8:35 am 08:35 Sunny 74 23.4 68 20.1 82 82 Calm 29.95 1014 10 16.0934 0 0
8:55 am 08:55 Sunny 76 24.6 67 19.6 74 74 SW 6 9 29.94 1014 10 16.0934 0 0
9:15 am 09:15 Hazy 78 25.4 67 19.4 69 69 SW 6 9 29.95 1014 3.5 5.63269 0 0
9:35 am 09:35 Sunny 79 25.9 68 20 70 70 SSW 3 6 29.94 1014 10 16.0934 0 0
9:55 am 09:55 Sunny 80 26.4 67 19.4 65 65 Calm 29.95 1014 10 16.0934 0 0
10:15 am 10:15 Sunny 82 27.5 68 20 64 64 WSW 6 9 29.95 1014 10 16.0934 0 0
10:35 am 10:35 Sunny 82 28 69 20.5 64 64 W 5 7 29.95 1014 10 16.0934 0 0
10:55 am 10:55 Sunny 83 28.1 68 20.1 62 62 SW 6 9 29.95 1014 10 16.0934 0 0
11:15 am 11:15 Sunny 83 28.6 69 20.3 61 61 Calm 29.94 1014 10 16.0934 0 0
11:35 am 11:35 Sunny 84 29 68 20.2 59 59 S 3 6 29.93 1014 10 16.0934 0 0
11:55 am 11:55 Partly Cloudy 85 29.6 68 20.2 57 57 SSW 5 7 29.92 1013 10 16.0934 0 0
12:15 pm 12:15 Sunny 86 29.8 68 20.1 56 56 W 5 7 29.92 1013 10 16.0934 0 0
12:35 pm 12:35 Sunny 86 30.1 68 20.2 55 55 W 3 6 29.92 1013 10 16.0934 0 0
12:55 pm 12:55 Sunny 86 29.9 67 19.5 54 54 WSW 5 7 29.92 1013 10 16.0934 0 0
1:15 pm 13:15 Partly Cloudy 88 31.1 67 19.6 50 50 WSW 8 13 29.91 1013 7 11.26538 0 0
1:35 pm 13:35 Sunny 87 30.7 67 19.7 52 52 SW 8 13 29.9 1013 10 16.0934 0 0
1:55 pm 13:55 Partly Cloudy 87 30.7 64 17.7 46 46 Calm 29.9 1013 10 16.0934 0 0
2:15 pm 14:15 Partly Cloudy 88 31 65 18.6 48 48 WSW 7 11 29.89 1012 10 16.0934 0 0
2:35 pm 14:35 Mostly Cloudy with Light Rain 84 29 68 20 58 58 WSW 8 13 29.88 1012 10 16.0934 0 0
2:55 pm 14:55 Mostly Cloudy 82 27.7 70 21.3 68 68 NNW 5 7 29.89 1012 10 16.0934 0 0
3:15 pm 15:15 Sunny 83 28.3 70 21 65 65 N 12 19 29.89 1012 10 16.0934 0 0
3:35 pm 15:35 Mostly Cloudy 80 26.8 68 20.2 67 67 N 9 15 29.88 1012 10 16.0934 0 0
3:55 pm 15:55 Cloudy with Heavy Thunderstorms 73 22.8 67 19.6 82 82 WSW 26 43 29.95 1014 5 8.0467 0.11 2.794
4:15 pm 16:15 Cloudy with Heavy Thunderstorms 70 21 67 19.6 92 92 W 10 17 29.94 1014 10 16.0934 0.18 4.572
4:35 pm 16:35 Cloudy with Light Thunderstorms 70 21.2 67 19.4 90 90 Calm 29.95 1014 10 16.0934 0.18 4.572
4:55 pm 16:55 Mostly Cloudy with Light Thunderstorms 71 21.8 68 19.8 88 88 Calm 29.94 1014 10 16.0934 0.19 4.826
5:15 pm 17:15 Partly Cloudy 72 22.2 68 20 87 87 NNE 3 6 29.93 1014 10 16.0934 0 0
5:35 pm 17:35 Partly Cloudy 73 22.8 69 20.5 87 87 NNE 6 9 29.92 1013 10 16.0934 0 0
5:55 pm 17:55 Sunny 74 23.1 69 20.4 85 85 NNE 5 7 29.91 1013 10 16.0934 0 0
6:15 pm 18:15 Sunny 74 23.4 69 20.5 84 84 NE 5 7 29.91 1013 10 16.0934 0 0
6:35 pm 18:35 Mostly Cloudy 74 23.2 68 20.2 83 83 NNE 6 9 29.9 1012 10 16.0934 0 0
6:55 pm 18:55 Sunny 73 22.8 69 20.3 86 86 Calm 29.9 1012 10 16.0934 0 0
7:15 pm 19:15 Cloudy 73 22.5 68 20.1 86 86 SSE 3 6 29.93 1014 10 16.0934 0 0
7:35 pm 19:35 Cloudy with Heavy Rain 71 21.6 70 20.9 96 96 Calm 29.94 1014 3 4.82802 0.1 2.54
7:55 pm 19:55 Cloudy with Rain 70 21.3 70 21 98 98 WNW 3 6 29.92 1013 4 6.43736 0.17 4.318
8:15 pm 20:15 Cloudy with Light Rain 70 20.9 69 20.4 97 97 WNW 3 6 29.92 1013 7 11.26538 0.02 0.508
8:35 pm 20:35 Cloudy with Light Rain 69 20.4 67 19.6 95 95 Calm 29.91 1013 10 16.0934 0.03 0.762
8:55 pm 20:55 Cloudy 69 20.4 67 19.7 96 96 NNE 3 6 29.91 1013 10 16.0934 0.03 0.762
9:15 pm 21:15 Mostly Cloudy 69 20.5 68 20 97 97 NE 3 6 29.91 1013 10 16.0934 0 0
9:35 pm 21:35 Mostly Cloudy 69 20.6 68 20.2 98 98 E 3 6 29.9 1013 10 16.0934 0 0
9:55 pm 21:55 Cloudy with Light Rain 69 20.7 69 20.5 99 99 ENE 3 6 29.91 1013 10 16.0934 0 0
10:15 pm 22:15 Cloudy with Light Rain 69 20.7 69 20.5 99 99 NE 3 6 29.91 1013 10 16.0934 0 0
10:35 pm 22:35 Cloudy with Light Rain 69 20.6 69 20.4 99 99 NE 3 6 29.91 1013 10 16.0934 0 0
10:55 pm 22:55 Cloudy with Light Rain 69 20.6 69 20.3 98 98 Calm 29.91 1013 10 16.0934 0.01 0.254
11:15 pm 23:15 Mostly Cloudy 69 20.5 69 20.3 99 99 Calm 29.91 1013 10 16.0934 0 0
11:35 pm 23:35 Partly Cloudy 69 20.3 68 20.1 99 99 Calm 29.91 1013 10 16.0934 0 0
11:55 pm 23:55 Partly Cloudy 68 20.2 68 20.1 99 99 Calm 29.91 1013 7 11.26538 0 0

Powered by AerisWeather